Theta_e
317 313 311 310 309 309 309 309 310 309 305 305 306 307 308 306 306 306 307 307 307 307 308 309 310 310 311 312 312 312 313 313 315 314 314 315 316 315 315 316 317 318 317
313 312 310 309 309 310 310 310 310 307 305 305 306 307 308 308 309 308 307 307 307 307 308 309 310 310 311 311 312 313 313 314 313 314 314 315 315 315 315 315 316 317 317
312 311 309 310 310 310 310 311 309 306 305 305 306 307 309 309 309 309 308 308 309 309 309 309 310 311 311 312 313 313 313 314 314 313 315 315 315 316 315 315 315 315 316
311 310 310 310 310 310 311 310 308 306 306 306 306 308 309 309 309 309 310 309 308 308 308 308 310 311 312 313 315 315 314 314 314 312 313 314 315 315 315 316 316 315 316
311 310 310 310 311 312 311 310 307 307 307 306 307 308 308 309 309 309 310 309 309 309 309 310 314 315 317 316 316 316 316 315 314 313 314 314 314 314 316 316 315 315 315
311 311 310 311 312 312 311 310 308 307 307 307 307 307 308 308 308 308 309 309 310 310 310 313 316 316 317 316 316 316 316 316 315 314 314 314 314 314 313 313 314 315 316
311 311 311 311 312 312 311 310 309 308 308 307 307 307 308 308 308 307 308 310 311 312 314 315 316 314 314 314 313 313 313 313 314 314 314 312 312 314 315 315 313 315 316
311 311 311 312 312 313 311 310 310 309 309 308 308 307 308 308 307 306 310 311 313 315 315 316 316 315 315 314 312 315 317 317 316 316 314 315 316 315 315 316 315 315 315
311 311 312 312 312 313 312 311 311 310 310 310 308 308 308 308 307 309 311 313 313 315 316 316 316 315 313 313 314 316 315 316 316 316 316 316 316 315 316 316 315 316 316
313 313 313 313 312 313 313 313 311 311 310 310 310 308 308 307 308 311 312 313 313 311 312 312 312 312 314 316 316 315 314 315 315 317 316 316 316 316 316 316 316 317 315
314 314 314 313 313 313 313 313 312 311 311 310 310 309 308 307 309 312 312 313 314 311 311 312 312 314 313 314 314 315 315 316 316 316 314 315 316 316 315 315 316 317 316
314 313 313 313 313 313 312 313 312 311 310 310 309 309 308 307 309 312 313 313 313 314 313 312 313 312 312 314 315 315 315 315 314 313 314 314 315 316 315 316 316 316 315
317 314 311 313 313 313 312 313 312 311 310 309 308 308 310 308 307 312 313 313 312 313 314 315 315 312 311 311 313 313 314 316 316 314 314 314 315 316 315 315 315 316 316
315 313 311 312 312 312 312 313 312 311 310 309 309 309 311 309 308 309 313 313 313 314 314 315 315 314 313 311 311 313 314 315 316 315 315 315 315 315 315 315 314 314 314
308 310 310 310 310 310 310 311 312 312 311 310 310 311 311 309 309 308 310 313 313 313 314 314 314 314 312 311 312 313 314 316 316 316 314 314 315 314 314 314 314 314 314
298 301 303 306 309 311 310 310 310 311 311 311 312 311 312 312 310 309 308 311 313 312 312 311 311 309 310 311 313 313 314 313 316 316 314 315 314 314 314 313 314 314 315
292 295 297 299 301 304 305 310 311 311 310 310 310 311 312 311 312 311 308 309 312 312 311 311 311 311 310 312 313 314 313 314 315 316 315 315 314 314 313 314 314 314 314
291 293 295 296 297 298 300 301 304 306 308 310 310 310 310 311 312 311 308 306 306 308 310 310 311 312 313 311 313 314 314 314 316 316 316 316 314 313 314 314 315 315 315
291 292 290 291 292 292 294 295 296 296 298 301 303 306 309 309 309 309 306 306 305 307 308 310 311 312 312 313 313 314 313 314 314 316 317 317 315 314 314 314 315 317 316
289 290 288 287 288 288 289 290 291 293 294 295 297 298 300 299 301 303 302 303 305 306 307 309 310 311 312 312 313 313 313 313 313 314 315 316 317 316 317 317 316 316 316
287 288 287 287 286 286 287 287 287 288 290 291 293 294 294 294 295 300 303 303 303 304 306 307 309 310 311 312 312 312 313 313 314 314 314 315 315 316 317 317 318 318 318
286 287 287 287 287 286 286 286 287 287 287 287 288 288 290 292 294 294 298 300 304 304 305 306 307 308 309 310 311 311 312 312 312 314 314 314 314 314 315 317 317 317 316
286 286 287 287 286 286 286 286 286 286 287 287 287 288 288 289 290 294 294 294 296 299 304 305 306 307 308 309 310 311 311 311 312 312 314 314 314 314 313 315 316 316 316
285 286 286 286 286 286 286 287 286 286 287 287 287 287 288 288 288 291 293 292 294 296 299 303 305 306 308 309 309 309 311 311 312 312 313 313 314 314 314 312 315 316 315
285 285 286 286 286 286 286 286 287 287 287 287 287 287 287 287 287 287 289 291 293 293 294 299 302 305 306 308 309 309 310 312 312 312 313 314 313 314 314 311 312 314 314
286 285 285 285 285 285 286 286 286 287 287 287 287 286 287 287 287 287 288 288 292 294 295 298 300 302 306 307 309 309 310 312 312 313 314 314 314 314 315 313 311 312 313
Wind_Speed
12 9 7 7 7 8 12 15 15 16 18 18 21 24 26 25 23 22 20 16 13 14 15 15 15 14 14 14 14 16 16 16 9 13 17 19 17 14 10 9 9 11 14
10 9 9 10 10 12 15 16 14 16 16 17 20 23 24 24 24 22 20 14 11 14 16 16 15 15 18 19 17 17 18 18 15 15 12 15 15 12 10 10 9 9 9
11 11 11 12 13 15 17 12 14 15 16 17 20 22 22 20 22 20 17 18 15 15 15 16 18 18 21 21 20 19 20 19 19 15 11 12 12 10 10 10 11 12 14
13 12 13 15 16 16 14 13 14 14 15 16 19 20 20 19 18 16 19 20 19 19 18 16 17 18 20 20 18 17 17 16 16 16 13 13 15 12 12 11 10 10 12
15 14 16 16 18 16 13 14 13 14 13 16 18 19 19 19 19 19 20 22 24 22 15 14 13 15 18 14 12 12 13 13 12 12 11 8 7 8 9 9 11 11 11
19 19 17 17 17 16 14 15 15 14 15 17 19 20 21 21 20 19 19 24 25 21 17 11 8 6 4 1 3 6 6 11 14 10 8 9 10 10 13 15 12 5 4
21 22 19 18 18 18 16 16 17 17 18 19 20 21 22 23 22 22 19 21 23 17 13 10 4 2 2 2 2 4 6 8 11 12 13 11 11 12 9 10 11 11 6
22 23 21 19 20 20 20 20 19 18 19 20 21 21 21 23 22 21 16 18 16 14 11 6 4 3 4 6 7 7 6 7 10 15 15 13 13 13 14 11 12 12 5
26 26 26 23 23 23 24 24 21 20 21 21 21 22 21 23 22 15 14 16 8 6 0 1 3 3 5 8 7 5 3 3 1 1 5 8 8 9 11 9 11 13 4
30 30 28 26 24 25 27 27 24 22 23 22 22 22 19 20 17 10 15 12 6 3 2 2 2 2 5 7 1 1 0 1 2 3 3 2 3 3 7 10 15 12 9
30 30 30 28 27 27 27 27 26 24 24 24 22 21 18 16 14 10 11 10 7 5 4 3 3 2 4 3 4 4 2 3 3 3 2 2 2 4 6 8 13 18 13
29 33 36 34 30 29 27 28 27 26 26 25 23 22 20 15 12 9 10 10 9 11 8 5 3 2 2 1 1 2 3 3 3 3 5 3 3 6 9 9 7 10 12
20 29 32 32 32 31 29 30 28 27 26 26 22 21 22 15 13 12 10 11 11 14 12 8 7 7 4 4 4 5 6 7 5 3 2 6 6 9 12 12 11 11 11
22 23 24 23 27 26 30 29 30 30 28 28 26 23 21 18 16 14 15 13 13 12 14 11 10 10 10 9 7 5 6 6 3 2 5 9 10 10 10 12 12 16 19
23 22 23 23 23 23 22 26 27 31 34 29 31 28 23 21 20 15 18 17 14 13 14 13 12 11 11 10 7 5 5 4 4 8 10 13 12 9 11 13 16 17 13
25 24 25 24 24 23 21 25 25 25 30 33 34 32 32 27 22 19 16 21 18 15 13 13 14 13 12 11 9 8 8 9 8 10 14 16 15 13 14 10 11 13 15
23 22 23 23 23 24 25 23 21 32 27 26 27 34 33 35 30 25 23 20 23 20 17 18 16 17 16 13 12 9 6 9 11 13 15 16 16 13 15 11 12 12 11
23 21 23 24 23 24 23 24 23 22 23 27 25 24 29 33 34 31 27 25 20 23 24 22 23 21 20 18 15 13 9 8 13 16 15 15 17 16 13 11 10 12 12
23 22 25 23 22 23 22 22 22 23 23 23 27 27 25 29 33 34 32 32 28 23 28 28 31 29 26 24 21 17 14 12 15 17 18 17 16 15 13 12 11 12 13
24 22 24 23 23 23 23 23 24 24 23 22 22 25 28 33 26 23 29 36 32 31 27 29 32 34 33 31 28 24 20 17 16 16 19 21 20 18 14 15 15 15 13
26 23 24 21 21 21 22 23 23 24 25 27 27 27 30 25 26 26 26 27 32 32 35 34 31 33 35 36 35 32 28 23 21 20 19 23 21 18 19 17 14 13 12
27 23 22 21 21 22 22 22 21 22 23 26 30 32 33 28 25 26 27 28 26 34 37 36 37 37 38 36 36 33 34 32 28 26 24 21 19 20 19 19 16 14 14
25 23 22 22 21 21 22 22 24 25 27 28 30 32 33 32 31 29 27 29 34 34 29 34 36 35 37 40 39 40 36 37 37 32 30 26 23 21 21 18 19 15 15
26 24 21 22 22 22 22 24 25 28 29 30 34 35 35 35 35 34 30 32 32 32 36 32 35 38 38 40 42 42 41 41 42 38 35 32 30 26 25 21 20 21 20
28 24 22 23 23 23 24 25 27 30 31 33 35 36 38 41 39 37 37 36 34 33 36 37 32 36 42 43 43 43 43 47 45 40 38 35 34 31 30 28 23 19 19
28 25 24 24 24 24 25 26 29 32 34 36 39 41 41 41 41 42 40 39 37 33 34 35 37 35 39 43 47 48 45 47 48 44 40 36 36 34 32 31 29 23 22
Wind_Direction
190 209 240 260 251 281 300 306 304 310 325 327 327 332 334 334 332 326 318 317 307 302 309 305 285 280 273 265 264 265 251 232 248 272 266 274 281 282 276 273 259 246 241
203 232 255 254 266 292 302 309 300 315 321 323 328 331 330 336 332 322 311 306 313 310 304 305 296 288 283 282 281 269 253 240 230 255 262 269 280 278 267 264 254 246 241
222 244 253 265 278 296 303 296 301 310 313 321 326 329 327 337 342 332 321 312 314 303 299 299 294 288 284 283 277 270 257 251 246 240 257 266 278 273 271 261 254 252 247
237 250 260 275 289 293 290 289 303 304 310 323 327 330 331 329 327 331 324 318 316 311 302 297 292 285 278 278 276 265 254 249 245 241 248 260 267 270 269 261 255 254 257
246 259 263 280 291 282 271 286 295 301 307 316 321 327 331 332 328 322 322 319 314 313 311 308 307 304 276 269 264 259 251 242 232 233 246 248 249 251 240 256 256 268 267
248 257 268 275 287 271 264 285 287 295 302 309 316 321 319 324 328 321 319 318 313 306 309 320 332 3 50 41 253 259 255 229 230 224 238 242 252 248 260 256 252 240 258
249 259 268 273 280 270 263 281 292 294 298 305 310 317 313 314 321 319 318 318 311 306 305 313 320 2 8 357 337 311 288 263 257 259 248 253 268 265 256 253 226 212 221
258 262 267 274 277 277 265 273 287 292 299 300 309 315 312 314 320 321 316 313 311 305 292 282 248 288 302 315 320 328 322 287 272 253 248 262 264 258 253 253 231 207 185
262 265 269 274 278 278 267 269 280 288 296 298 304 312 310 312 321 318 314 316 318 322 13 192 257 278 299 306 304 305 310 354 50 287 258 265 265 255 234 212 184 167 147
265 270 275 276 277 276 274 273 273 282 289 296 298 309 307 308 320 313 315 314 299 329 338 286 258 305 327 325 197 219 323 106 123 122 29 356 21 102 168 188 176 156 127
272 275 277 277 275 274 278 275 269 276 284 291 291 301 306 308 308 315 317 311 287 296 333 313 269 305 351 54 99 119 141 148 149 162 53 44 122 115 143 168 181 177 156
313 305 290 286 281 275 275 275 267 269 277 283 286 295 303 302 297 284 295 294 287 278 276 300 282 286 332 345 238 232 208 209 215 236 272 206 158 146 135 137 167 163 182
320 313 299 290 285 283 275 270 266 264 268 273 277 286 296 297 288 262 269 276 281 273 263 264 265 263 259 275 261 267 249 247 261 258 214 176 161 149 137 136 130 142 151
356 335 316 311 308 298 289 274 272 264 263 265 269 274 286 287 278 263 249 260 270 269 251 250 257 250 263 267 275 255 262 252 246 138 121 141 147 144 144 148 141 138 133
6 355 356 357 340 324 305 291 278 276 269 268 273 274 271 274 278 276 254 245 257 261 253 252 254 248 252 257 263 261 254 224 187 154 142 140 141 138 136 139 141 144 135
360 2 357 354 352 344 339 323 315 300 294 282 269 269 272 269 270 265 261 243 241 245 245 246 245 247 240 247 259 278 267 217 200 175 162 152 148 143 145 143 150 149 145
354 356 354 355 352 348 346 337 321 322 313 301 289 273 263 268 264 259 250 248 241 239 232 240 243 244 244 238 253 261 258 216 201 187 181 171 161 156 159 152 145 150 155
1 3 358 355 350 347 341 339 333 338 337 323 312 303 295 274 259 259 242 235 229 236 236 236 240 243 245 241 240 243 240 222 202 194 194 188 181 172 168 170 172 173 175
5 3 1 355 352 347 344 341 339 336 331 329 330 338 335 311 293 268 245 230 227 231 235 234 237 241 243 242 238 240 234 223 213 203 197 197 191 181 181 181 184 180 176
3 358 355 355 352 350 349 344 339 334 331 328 327 326 331 337 331 304 263 236 227 231 234 235 235 237 239 239 237 236 232 225 216 216 211 201 202 201 197 191 192 186 194
358 349 352 348 346 344 343 342 339 338 334 328 322 318 317 320 306 302 307 261 243 238 232 231 235 232 233 235 236 231 230 227 219 215 215 218 210 204 210 213 212 201 193
350 341 336 336 335 337 334 333 332 330 330 327 321 319 316 312 300 295 301 304 286 253 244 236 231 229 230 226 227 226 227 229 226 219 215 214 211 210 213 213 210 211 195
337 336 328 322 321 321 328 325 324 322 318 320 319 315 311 306 299 287 281 287 288 291 275 245 237 232 228 228 226 224 220 222 225 223 212 211 213 212 209 209 212 207 208
335 328 319 316 313 311 308 313 314 312 311 309 309 307 305 301 297 290 281 286 280 279 275 281 247 238 231 222 224 225 222 222 223 223 220 212 210 213 210 209 206 205 207
335 325 316 317 314 310 307 308 309 312 310 306 306 304 301 297 291 286 282 277 267 271 272 268 275 248 236 227 220 221 218 220 221 218 214 215 211 211 210 206 201 197 193
328 323 315 311 314 311 310 311 308 310 308 306 307 303 298 293 285 281 277 269 265 262 268 265 262 269 242 231 226 226 222 217 215 216 216 214 211 206 204 204 202 194 189